This is the latest recevied weather packets stored in our database for station/object S56WDN-10. If no packets are shown the sender has not sent any weather packets the latest 10 day(s).
| Time | Temp. | Humidity | Pressure | Rain* | Wind** | Luminosity | Snow |
|---|---|---|---|---|---|---|---|
| 1778147812 | 20.56° C | 58% | 1013 hPa | 0 mm | - | - | - |
| 1778147516 | 20.56° C | 60% | 1013.3 hPa | 0 mm | - | - | - |
| 1778147212 | 20.56° C | 60% | 1013.2 hPa | 0 mm | - | - | - |
| 1778146912 | 20.56° C | 60% | 1013.3 hPa | 0 mm | - | - | - |
| 1778146612 | 20.56° C | 60% | 1013 hPa | 0 mm | - | - | - |
| 1778146312 | 20.56° C | 60% | 1013.1 hPa | 0 mm | - | - | - |
| 1778146012 | 21.11° C | 61% | 1013.2 hPa | 0 mm | - | - | - |
| 1778145712 | 20.56° C | 61% | 1013.2 hPa | 0 mm | - | - | - |
| 1778145412 | 20.56° C | 62% | 1013.2 hPa | 0 mm | - | - | - |
| 1778145112 | 20.56° C | 63% | 1013.2 hPa | 0 mm | - | - | - |
| 1778144812 | 20° C | 66% | 1013.3 hPa | 0 mm | - | - | - |
| 1778144512 | 20° C | 66% | 1013.1 hPa | 0 mm | - | - | - |
| 1778144212 | 18.89° C | 69% | 1013.2 hPa | 0 mm | - | - | - |
| 1778143912 | 18.89° C | 70% | 1013.2 hPa | 0 mm | - | - | - |
| 1778143612 | 18.33° C | 72% | 1013.2 hPa | 0 mm | - | - | - |
| 1778143312 | 17.78° C | 73% | 1013.3 hPa | 0 mm | - | - | - |
| 1778143012 | 17.78° C | 74% | 1013.3 hPa | 0 mm | - | - | - |
| 1778142712 | 17.22° C | 76% | 1013.3 hPa | 0 mm | - | - | - |
| 1778142412 | 17.22° C | 77% | 1013.3 hPa | 0 mm | - | - | - |
| 1778142112 | 17.22° C | 78% | 1013.2 hPa | 0 mm | - | - | - |
| 1778141812 | 16.67° C | 78% | 1013.1 hPa | 0 mm | - | - | - |
| 1778141512 | 15.56° C | 80% | 1013.3 hPa | 0 mm | - | - | - |
| 1778141212 | 15.56° C | 80% | 1013.3 hPa | 0 mm | - | - | - |
| 1778140912 | 15.56° C | 81% | 1013.3 hPa | 0 mm | - | - | - |
| 1778140612 | 15° C | 81% | 1013.3 hPa | 0 mm | - | - | - |
* Rain latest hour (hover to see other rain measurements)
** Current wind speed in m/s (hover to see current wind gust speed)